Flag for Kuwait Weather past 2 weeks in Kuwait City, Kuwait

Now
97 °F

Clear.


Feels Like: 100 °F
Forecast: 96 / 115 °F
Wind: 5 mph from South

Location: Kuwait International Airport

Current Time: Aug 20, 2014 at 11:30:17 PM

Latest Report: Aug 20, 2014 at 11:00 PM


Visibility: 4 mi

Pressure: 29.65 "Hg

Humidity: 37%

Dew point: 66 °F

Location of Kuwait CityLocation

Historic Weather in Kuwait City — Graph

°F

Kuwait City temperature yesterday

Maximum temperature yesterday: 106 °F (at 11:00 AM)
Minimum temperature yesterday: 88 °F (at 3:00 AM)
Average temperature yesterday: 95 °F

Past Weeks' High & Low Weather Summary

 TemperatureHumidityPressure
High122 °F (Aug 15, 3:30 PM)89% (Aug 18, 6:00 AM)29.74 "Hg (Aug 18, 6:00 AM)
Low82 °F (Aug 6, 5:00 AM)6% (Aug 15, 2:00 PM)29.27 "Hg (Aug 8, 8:00 PM)
Average103 °F24%29.53 "Hg
* Reported Aug 5 10:00 PM — Aug 20 10:00 PM, Kuwait City, Weather by CustomWeather, © 2014

Note: Actual official high and low records may vary slightly from our data, if they occured in-between our weather recording intervals... More about our weather records

Advertising

Kuwait City weather history for previous 24 hours

 ConditionsComfort  
Time TempWeatherWind HumidityBarometerVisibility
10:00 PM
Aug 20
99 °FClear.7 mph31%29.65 "Hg5 mi
9:00 PM100 °FClear.6 mph27%29.65 "Hg4 mi
8:00 PM102 °FClear.6 mph26%29.65 "Hg4 mi
7:00 PM104 °FClear.6 mph26%29.62 "Hg5 mi
6:00 PM108 °FSunny.7 mph22%29.62 "Hg5 mi
5:00 PM109 °FSunny.10 mph21%29.62 "Hg5 mi
4:00 PM109 °FSunny.10 mph22%29.62 "Hg5 mi
3:00 PM109 °FSunny.9 mph22%29.62 "Hg5 mi
2:00 PM109 °FSunny.12 mph23%29.65 "Hg4 mi
1:00 PM109 °FSunny.8 mph25%29.65 "Hg4 mi
12:00 PM108 °FSunny.10 mph34%29.68 "Hg4 mi
11:00 AM113 °FSunny.7 mph14%29.71 "Hg4 mi
10:00 AM109 °FSunny.5 mph18%29.71 "Hg3 mi
9:00 AM104 °FSunny.6 mph29%29.71 "Hg3 mi
8:00 AM99 °FSunny.6 mph35%29.71 "Hg3 mi
7:00 AM93 °FSunny.3 mph53%29.71 "Hg2 mi
6:00 AM88 °FSunny.No wind70%29.71 "Hg2 mi
5:00 AM86 °FClear.6 mph79%29.71 "Hg4 mi
4:00 AM86 °FClear.6 mph89%29.71 "Hg4 mi
3:00 AM88 °FClear.5 mph89%29.71 "Hg4 mi
2:00 AM88 °FClear.7 mph89%29.71 "Hg4 mi
1:00 AM88 °FClear.6 mph84%29.71 "Hg4 mi
12:00 AM90 °FClear.5 mph79%29.74 "Hg4 mi
11:00 PM
Aug 19
91 °FClear.10 mph80%29.74 "Hg4 mi
Weather by CustomWeather, © 2014

See weather overviewHow to use our weather pages